Regional Weather Roundup
Issued by NWS

Home | Current Version | Previous Version | Graphics & Text | Print | Product List | Glossary On
Versions: 1 2 3 4 5 6 7 8 9 10 11 12 13 14 15 16 17 18 19 20 21 22 23 24 25 26 27 28 29 30 31 32 33 34 35 36 37 38 39 40 41 42 43 44 45 46 47 48 49 50
000
ASUS43 KMPX 281510
RWRMN
WEATHER ROUNDUP FOR MINNESOTA
NATIONAL WEATHER SERVICE TWIN CITIES/CHANHASSEN MN
1000 AM CDT FRI AUG 28 2015


NOTE: "FAIR" INDICATES FEW OR NO CLOUDS BELOW 12,000 FEET WITH NO
SIGNIFICANT WEATHER AND/OR OBSTRUCTIONS TO VISIBILITY. N/A MEANS
CURRENT SKY AND/OR WEATHER CONDITIONS ARE NOT AVAILABLE.

MNZ060>063-068>070-281600-
   Twin Cities Metro

CITY           SKY/WX    TMP DP  RH WIND       PRES   REMARKS
TWIN CITIES    CLOUDY    69  63  81 S9G18     30.02S
ST PAUL        CLOUDY    67  63  87 SE8       30.03S
CRYSTAL        CLOUDY    71  63  75 S7        30.00F
BLAINE         CLOUDY    70  66  88 S7        30.02S
LAKEVILLE      DRIZZLE   64  64 100 S9        30.00F
EDEN PRAIRIE   CLOUDY    68  64  87 E5        29.99F
SOUTH ST PAUL  CLOUDY    67  63  86 SE3       30.02F
LAKE ELMO      FAIR      66  63  88 S7        30.04F
$$
MNZ001>005-007-008-013>017-022>024-027-028-281600-
   Northwest Minnesota

CITY           SKY/WX    TMP DP  RH WIND       PRES   REMARKS
BEMIDJI        MOSUNNY   68  65  90 S6        29.94R
HALLOCK        LGT RAIN  64  63  94 S13       29.84S
ROSEAU           N/A     66  61  82 CALM      29.88F
WARROAD        TSTM      64  61  88 SW6       29.89F
THIEF RVR FALL PTSUNNY  N/A N/A N/A SW8       29.92R
CROOKSTON      MOSUNNY   70  66  88 S14       29.90R
FOSSTON        MOSUNNY   70  64  83 S14       29.94R
DETROIT LAKES  CLOUDY    68  63  83 S14       29.96S
MOORHEAD       CLOUDY    66  64  94 S8        29.94R
PARK RAPIDS    PTSUNNY   70  64  81 S12       29.97R
MAHNOMEN       PTSUNNY   68  65  90 S12       29.94R
$$
MNZ006-009>011-018-025>026-281600-
   North Central Minnesota

CITY           SKY/WX    TMP DP  RH WIND       PRES   REMARKS
BAUDETTE       CLOUDY    66  65  96 W3        29.89S
FLAG ISLAND    CLOUDY    66  64  94 S8        29.80F
INTL FALLS     CLOUDY    66  63  90 SW7       29.90R
WASKISH        CLOUDY    70  68  94 SW6       29.91R
BIG FORK       CLOUDY    66  64  94 S6        29.94R FOG
LONGVILLE      CLOUDY    66  64  94 SW7       29.97R
GRAND RAPIDS     N/A     66  63  88 SW7       29.97R
CRANE LAKE     CLOUDY    63  61  94 S6        29.94S
ORR            CLOUDY    64  61  88 S2        29.92S
COOK           CLOUDY    64  63  94 CALM      29.95S FOG
WALKER         CLOUDY    67  64  90 SW10      29.95S
$$
MNZ012-019>021-037-281600-
   Northeast Minnesota

CITY           SKY/WX    TMP DP  RH WIND       PRES   REMARKS
DULUTH         CLOUDY    64  59  83 SW12      29.98R
ELY            CLOUDY    63  61  94 SW3       29.96R
HIBBING        CLOUDY    65  62  90 SW5       29.96R
EVELETH        CLOUDY    63  61  94 W3        29.97S
DULUTH HARBOR  CLOUDY    64  61  88 SW10      29.98R
TWO HARBORS    CLOUDY    66  61  82 SW7       29.95F
SILVER BAY     CLOUDY    64  57  77 CALM      29.94F
GRAND MARAIS     N/A     55  50  83 CALM      29.95S
G MARAIS ARPRT CLOUDY    61  54  77 CALM      29.98S
$$
MNZ029>031-032-039>041-046>048-054>057-064-281600-
   West Central Minnesota

CITY           SKY/WX    TMP DP  RH WIND       PRES   REMARKS
FERGUS FALLS   PTSUNNY   68  66  94 S10       29.95S
WHEATON        PTSUNNY   66  63  88 S8        29.96F
MORRIS         CLOUDY    68  64  88 S8        29.96F
ALEXANDRIA     MOSUNNY   69  64  84 S6        29.99F
ELBOW LAKE     CLOUDY    65  64  95 S13       29.97R
WADENA         SUNNY     72  64  78 S8        29.97S
GLENWOOD       MOSUNNY   68  64  88 S6        29.98F
APPLETON       MOSUNNY   70  63  78 CALM      29.96S
BENSON         SUNNY     70  63  78 CALM      29.96F
ORTONVILLE     CLOUDY    64  63  94 SE5       29.97R
MADISON        MOSUNNY   68  64  88 E6        29.95F
WILLMAR        FAIR      70  64  83 SE9       29.99S
$$
MNZ033>034-036-042>043-049>051-058-059-281600-
   Central Minnesota

CITY           SKY/WX    TMP DP  RH WIND       PRES   REMARKS
ST CLOUD       MOSUNNY   68  63  84 S9        30.00S
SAUK CENTRE    FAIR      67  64  87 S6        29.98F
PAYNESVILLE    MOSUNNY   67  63  84 E8        29.99S
AITKIN         PTSUNNY   70  63  78 SW6       29.97F
PINE RIVER     MOSUNNY   70  63  78 S6        30.01S
BRAINERD       SUNNY     69  63  81 SW12      29.98F
STAPLES        SUNNY     70  63  78 S12       29.98S
LONG PRAIRIE   FAIR      68  63  83 S6        30.00R
LITTLE FALLS   MOSUNNY   68  61  77 CALM      29.99R
LITCHFIELD     PTSUNNY   70  66  88 SE9       30.00F
BUFFALO        PTSUNNY   67  62  83 SE5       30.02F
MAPLE LAKE     PTSUNNY   69  66  89 SE5       30.01F
$$
MNZ037-044-045-052-053-281600-
   East Central Minnesota

CITY           SKY/WX    TMP DP  RH WIND       PRES   REMARKS
PRINCETON      MOSUNNY   72  64  78 S8        30.00F
MORA           MOSUNNY   64  61  88 SW6       30.02S
CAMBRIDGE      PTSUNNY   72  61  68 S7        29.99F
RUSH CITY      PTSUNNY   68  63  84 S8        30.02S
MOOSE LAKE     CLOUDY    63  59  88 SW8       29.99R
HINCKLEY       PTSUNNY   68  64  88 SW7       30.01S
CLOQUET        CLOUDY    64  59  82 SW9       29.98S
MCGREGOR       CLOUDY    66  61  82 SW9G16    29.99S
$$
MNZ071>073-080-081-089-090-097-098-281600-
   Southwest Minnesota

CITY           SKY/WX    TMP DP  RH WIND       PRES   REMARKS
MONTEVIDEO     MOSUNNY   72  70  94 S5        29.98S
GRANITE FALLS  CLOUDY    66  64  90 E6        29.98S
CANBY          PTSUNNY   66  65  96 SE7       29.97S
MARSHALL       CLOUDY    66  59  77 NE6       29.98S
REDWOOD FALLS  MOSUNNY   71  64  78 E13       29.96S
OLIVIA         PTSUNNY   68  63  83 SE6       29.97S
PIPESTONE      PTSUNNY   68  63  83 SE13G18   29.95S
WINDOM         CLOUDY    66  63  88 E14       29.96R
WORTHINGTON    CLOUDY    64  61  88 E13       29.95R
JACKSON        CLOUDY    64  64 100 E15G23    29.96S
TRACY          CLOUDY    69  64  85 E7        29.97R
SLAYTON        CLOUDY    65  64  97 CALM      29.96F
$$
MNZ065>067-074>077-082>085-091>093-281600-
   South Central Minnesota

CITY           SKY/WX    TMP DP  RH WIND       PRES   REMARKS
MANKATO        CLOUDY    66  61  82 SE12      29.99S
NEW ULM        CLOUDY    66  64  94 SE15      29.96F
ST JAMES       CLOUDY    70  66  88 E14G20    29.97S
FAIRMONT       CLOUDY    64  57  77 E9        29.97R
GLENCOE        CLOUDY    69  66  89 E5        29.98S
FARIBAULT      LGT RAIN  64  63  94 SE6       30.03F
OWATONNA       LGT RAIN  64  61  88 E6        30.03R
WASECA         LGT RAIN  63  61  94 MISG      30.02R
ALBERT LEA     HVY RAIN  63  63 100 E9        30.00F
$$
MNZ078>079-086>088-094>096-281600-
   Southeast Minnesota

CITY           SKY/WX    TMP DP  RH WIND       PRES   REMARKS
ROCHESTER      RAIN      62  61  96 S7        30.09S FOG
RED WING       LGT RAIN  66  63  88 SE5       30.03F
STANTON        LGT RAIN  66  63  90 S5        30.01F
DODGE CENTER   RAIN      63  61  94 CALM      30.06S
WINONA         LGT RAIN  63  61  94 CALM      30.08R
AUSTIN         LGT RAIN  64  63  94 E8        30.03F
PRESTON        RAIN      60  59  96 S6        30.10R
$$
ABBREVIATIONS USED IN REMARKS
   TC - TEMPERATURES IN CELSIUS
  WCI - WIND CHILL INDEX
   HX - HEAT INDEX
  VSB - VISIBILITY
$$


USA.gov is the U.S. government's official web portal to all federal, state and local government web resources and services.